Location: Newark
(54.2500°N, 9.1833°E)
Time: 18:22:04
(UTC+00:00)

A-11 Canister half - Pass Details

Date: 12 December 2019
Orbit: 1517 x 1683 km, 47.2° (Epoch: 25 January)

Event Time Altitude Azimuth Distance (km) Brightness Sun altitude
Rises 17:33:04 0° 285° (WNW) 4,875 12.7 -20.9°
Reaches altitude 10° 17:36:52 10° 273° (W) 3,907 12.2 -21.4°
Maximum altitude 17:44:28 25° 223° (SW) 2,891 10.9 -22.5°
Drops below altitude 10° 17:52:09 10° 173° (S) 3,940 11.1 -23.6°
Sets 17:56:02 0° 161° (SSE) 4,923 11.5 -24.2°
